Flag for U.S.A. Weather past 2 weeks in Elizabeth, New Jersey, U.S.A.

58 °F

Scattered clouds.

Feels Like: 58 °F
Forecast: 52 / 63 °F
Wind: 3 mph from North

Location: Newark International Airport

Current Time: Oct 10, 2015 at 11:13:16 AM

Latest Report: Oct 10, 2015 at 10:51 AM

Visibility: 10 mi

Pressure: 30.14 "Hg

Humidity: 46%

Dew point: 37 °F

Location of ElizabethLocation

Historic Weather in Elizabeth — Graph


Elizabeth temperature yesterday

Maximum temperature yesterday: 81 °F (at 2:51 PM)
Minimum temperature yesterday: 60 °F (at 12:51 AM)
Average temperature yesterday: 67 °F

Past Weeks' High & Low Weather Summary

High81 °F (Sep 29, 12:51 PM)97% (Sep 30, 2:51 AM)30.47 "Hg (Sep 30, 2:51 AM)
Low48 °F (Oct 2, 7:51 PM)37% (Oct 6, 12:51 PM)29.65 "Hg (Sep 30, 5:51 AM)
Average63 °F72%30.14 "Hg
* Reported Sep 25 9:51 AM — Oct 10 9:51 AM, Elizabeth, Weather by CustomWeather, © 2015

Note: Actual official high and low records may vary slightly from our data, if they occured in-between our weather recording intervals... More about our weather records


Elizabeth weather history for previous 24 hours

Time TempWeatherWind HumidityBarometerVisibility
9:51 AM
Sat, Oct 10
57 °FScattered clouds.8 mph49%30.14 "Hg10 mi
8:51 AM54 °FScattered clouds.9 mph57%30.14 "Hg10 mi
7:51 AM51 °FPassing clouds.9 mph61%30.11 "Hg10 mi
6:51 AM50 °FPassing clouds.9 mph63%30.08 "Hg10 mi
5:51 AM52 °FPassing clouds.14 mph61%30.06 "Hg10 mi
4:51 AM54 °FPassing clouds.16 mph59%30.02 "Hg10 mi
3:51 AM55 °FPassing clouds.12 mph64%29.99 "Hg10 mi
2:51 AM57 °FPassing clouds.20 mph62%29.97 "Hg10 mi
1:51 AM60 °FPartly cloudy.14 mph65%29.94 "Hg10 mi
12:51 AM61 °FPassing clouds.15 mph70%29.91 "Hg10 mi
11:51 PM
Fri, Oct 9
63 °FPassing clouds.14 mph70%29.89 "Hg10 mi
10:51 PM65 °FPassing clouds.12 mph81%29.88 "Hg10 mi
9:51 PM65 °FPartly cloudy.9 mph91%29.85 "Hg10 mi
8:51 PM65 °FPartly cloudy.9 mph94%29.83 "Hg10 mi
7:51 PM66 °FOvercast.10 mph90%29.81 "Hg10 mi
6:51 PM66 °FRain. Cloudy.9 mph90%29.79 "Hg9 mi
5:51 PM66 °FThunderstorms. Fog.10 mph90%29.78 "Hg5 mi
4:57 PM77 °FThunderstorms. Mostly cloudy.20 mph61%29.75 "Hg10 mi
3:51 PM79 °FBroken clouds.14 mph56%29.76 "Hg10 mi
2:51 PM81 °FBroken clouds.15 mph53%29.78 "Hg10 mi
1:51 PM78 °FBroken clouds.13 mph58%29.82 "Hg10 mi
12:51 PM74 °FPartly sunny.10 mph64%29.86 "Hg10 mi
11:51 AM74 °FBroken clouds.13 mph64%29.89 "Hg10 mi
Weather by CustomWeather, © 2015

See weather overviewHow to use our weather pages